This is the latest recevied weather packets stored in our database for station/object iz1wiy-3. If no packets are shown the sender has not sent any weather packets the latest 1 day(s).
| Time | Temp. | Humidity | Pressure | Rain* | Wind** | Luminosity | Snow |
|---|---|---|---|---|---|---|---|
| 1778046003 | 16.11° C | 90% | 1008.9 hPa | 17.53 mm | 0.89 m/s, 10° | - | - |
| 1778045943 | 16.11° C | 89% | 1008.8 hPa | 17.78 mm | 0.89 m/s, 2° | - | - |
| 1778045884 | 16.11° C | 89% | 1008.8 hPa | 17.78 mm | 0.89 m/s, 333° | - | - |
| 1778045823 | 16.11° C | 89% | 1008.9 hPa | 17.78 mm | 0.89 m/s, 300° | - | - |
| 1778045763 | 16.11° C | 89% | 1008.9 hPa | 17.78 mm | 0.89 m/s, 299° | - | - |
| 1778045703 | 16.11° C | 89% | 1009.1 hPa | 17.53 mm | 1.34 m/s, 291° | - | - |
| 1778045644 | 16.11° C | 89% | 1009.1 hPa | 17.53 mm | 1.34 m/s, 250° | - | - |
| 1778045583 | 16.11° C | 89% | 1009.2 hPa | 17.02 mm | 1.34 m/s, 231° | - | - |
| 1778045523 | 16.11° C | 89% | 1009.1 hPa | 16.76 mm | 1.79 m/s, 222° | - | - |
| 1778045463 | 16.11° C | 88% | 1009 hPa | 16.51 mm | 1.79 m/s, 217° | - | - |
| 1778045405 | 16.11° C | 88% | 1009.1 hPa | 16.26 mm | 1.79 m/s, 215° | - | - |
| 1778045343 | 16.11° C | 88% | 1009.1 hPa | 16.26 mm | 1.79 m/s, 214° | - | - |
| 1778045283 | 16.11° C | 87% | 1009.1 hPa | 15.75 mm | 1.79 m/s, 207° | - | - |
| 1778045224 | 16.67° C | 87% | 1009.3 hPa | 15.24 mm | 1.79 m/s, 207° | - | - |
| 1778045163 | 16.67° C | 87% | 1009.3 hPa | 13.97 mm | 2.24 m/s, 208° | - | - |
| 1778045103 | 16.67° C | 87% | 1009.4 hPa | 13.46 mm | 2.24 m/s, 213° | - | - |
| 1778045043 | 16.67° C | 88% | 1009.4 hPa | 12.95 mm | 2.24 m/s, 219° | - | - |
| 1778044983 | 16.67° C | 89% | 1009.4 hPa | 12.7 mm | 2.24 m/s, 217° | - | - |
| 1778044923 | 16.67° C | 89% | 1009.4 hPa | 12.45 mm | 2.24 m/s, 218° | - | - |
| 1778044863 | 16.67° C | 89% | 1009.4 hPa | 11.94 mm | 2.24 m/s, 220° | - | - |
| 1778044803 | 16.67° C | 89% | 1009.4 hPa | 11.43 mm | 2.24 m/s, 221° | - | - |
| 1778044743 | 16.67° C | 88% | 1009.4 hPa | 10.92 mm | 2.68 m/s, 221° | - | - |
| 1778044683 | 16.67° C | 88% | 1009.4 hPa | 10.92 mm | 2.68 m/s, 221° | - | - |
| 1778044623 | 16.67° C | 87% | 1009.5 hPa | 10.16 mm | 2.68 m/s, 221° | - | - |
| 1778044563 | 16.67° C | 87% | 1009.5 hPa | 9.4 mm | 2.68 m/s, 222° | - | - |
* Rain latest hour (hover to see other rain measurements)
** Current wind speed in m/s (hover to see current wind gust speed)